Location: Gunn
(53.7910°N, 114.3619°W)
Time: 15:57:32
(UTC+00:00)

Envisat - Visible Passes

Search period start: 05 June 2023 00:00
Search period end: 15 June 2023 00:00
Orbit: 763 x 765 km, 98.2° (Epoch: 05 June)

Date Brightness Start Highest point End Pass type
(mag) Time Alt. Az. Time Alt. Az. Time Alt. Az.
07 Jun 5.7 10:00:23 10° NE 10:02:43 13° E 10:05:03 10° ESE visible
10 Jun 6.0 09:49:27 10° ENE 09:50:04 10° E 09:50:41 10° E visible
12 Jun 5.5 10:12:00 10° NE 10:15:12 16° E 10:18:23 10° SE visible
